Weather reports worldwide

Advertisment
Mannheim, Germany (10729): temperature & dewpoint: 10.01.2018 08:00:00 - 16.01.2018 08:00:00 (CET)Mannheim, Germany (10729): temperature 5cm & temperature -5cm: 10.01.2018 08:00:00 - 16.01.2018 08:00:00 (CET)Mannheim, Germany (10729): temperature -20cm & temperature -100cm: 10.01.2018 08:00:00 - 16.01.2018 08:00:00 (CET)Mannheim, Germany (10729): wind speed & gusts: 10.01.2018 08:00:00 - 16.01.2018 08:00:00 (CET)Mannheim, Germany (10729): wind direction: 10.01.2018 08:00:00 - 16.01.2018 08:00:00 (CET)Mannheim, Germany (10729): reduced air pressure: 10.01.2018 08:00:00 - 16.01.2018 08:00:00 (CET)Mannheim, Germany (10729): visibility: 10.01.2018 08:00:00 - 16.01.2018 08:00:00 (CET)Mannheim, Germany (10729): sunshine duration: 10.01.2018 08:00:00 - 16.01.2018 08:00:00 (CET)Mannheim, Germany (10729): precipitation: 10.01.2018 08:00:00 - 16.01.2018 08:00:00 (CET)
Date & Time tt [°C] td [°C] tt 5cm [°C] tt -5cm [°C] tt -20cm [°C] tt -100cm [°C] ff [km/h] ff [kn] fx [km/h] fx [kn] dd ppp [hPa] vv [km] sd [min] rr [mm]
16.01.2018 08:00:00 6,3 5,8 5,5 4,8 4,5 7,7 14 7 29 16 S 997,0 64 0 1,4
16.01.2018 07:00:00 7,0 5,9 6,0 4,7 4,4 7,7 20 11 35 19 SSW 997,1 7 0 0,1
16.01.2018 06:00:00 6,5 5,5 5,7 4,5 4,4 7,7 16 9 34 18 SSE 997,7 55 0 0,0
16.01.2018 05:00:00 7,4 4,9 5,4 4,7 4,3 7,7 18 10 27 15 SSW 998,3 70 0 0,2
16.01.2018 04:00:00 7,4 4,5 6,3 4,6 4,2 7,7 16 9 33 18 S 999,4 70 0 0,0
16.01.2018 03:00:00 7,7 5,2 6,4 4,6 4,2 7,7 16 9 40 22 SW 999,8 70 0 0,0
16.01.2018 02:00:00 6,4 5,4 5,8 4,5 4,1 7,7 23 12 44 24 S 999,7 70 0 0,0
16.01.2018 01:00:00 6,3 5,3 5,4 4,3 4,0 7,8 33 18 51 27 S 1000,4 18 0 0,1
16.01.2018 00:00:00 6,4 5,1 5,2 4,1 4,0 7,8 36 20 60 32 SSW 1000,8 37 0 0,1
15.01.2018 23:00:00 6,2 4,9 5,1 4,1 3,9 7,8 31 17 55 30 S 1001,4 58 0 0,0
15.01.2018 22:00:00 5,9 4,9 5,0 3,9 3,8 7,8 26 14 55 30 S 1002,2 18 0 0,6
15.01.2018 21:00:00 5,6 4,7 4,8 3,7 3,7 7,8 27 15 50 27 S 1003,2 15 0 0,6
15.01.2018 20:00:00 5,8 3,8 4,5 3,4 3,7 7,8 24 13 40 22 S 1004,9 11 0 0,2
15.01.2018 19:00:00 5,6 3,0 4,3 3,2 3,6 7,8 21 11 30 16 SSE 1006,1 14 0 0,0
15.01.2018 18:00:00 4,9 2,1 3,7 3,0 3,6 7,8 16 9 35 19 SSE 1007,4 17 0 0,1
15.01.2018 17:00:00 5,2 0,9 4,3 2,9 3,5 7,8 16 9 34 18 S 1009,1 21 0 0,0
15.01.2018 16:00:00 4,8 0,7 4,3 2,9 3,4 7,8 18 10 38 21 SSE 1009,9 19 0 0,0
15.01.2018 15:00:00 4,5 0,2 4,0 2,7 3,4 7,8 19 10 40 21 S 1012,4 17 0 0,0
15.01.2018 14:00:00 4,5 0,4 4,4 2,4 3,4 7,8 21 11 34 18 S 1013,9 19 0 0,0
15.01.2018 13:00:00 3,5 0,2 3,1 1,1 3,4 7,8 19 10 27 14 S 1015,5 15 0 0,0
15.01.2018 12:00:00 2,7 -0,4 2,3 0,8 3,5 7,8 19 11 29 16 S 1016,9 13 0 0,0
15.01.2018 11:00:00 2,2 -0,6 1,7 0,8 3,6 7,8 17 9 29 16 S 1018,0 13 0 0,0
15.01.2018 10:00:00 1,9 -0,7 1,4 0,8 3,6 7,8 16 9 24 13 SSE 1018,8 12 0 0,0
15.01.2018 09:00:00 1,5 -1,0 0,9 0,8 3,7 7,8 16 8 22 12 SSE 1019,5 12 0 0,0
15.01.2018 08:00:00 0,5 -1,2 -0,6 0,8 3,7 7,8 13 7 21 11 S 1019,7 10 0 0,0
15.01.2018 07:00:00 1,0 -0,8 -0,2 0,8 3,8 7,8 13 7 18 10 SSE 1020,0 10 0 0,0
15.01.2018 06:00:00 0,8 -0,9 -0,2 0,7 3,9 7,8 12 6 19 10 SSE 1020,2 10 0 0,0
15.01.2018 05:00:00 0,5 -0,9 -0,5 0,7 4,0 7,8 11 6 17 9 SSE 1020,9 10 0 0,0
15.01.2018 04:00:00 -0,6 -1,7 -1,8 0,7 4,1 7,8 10 5 14 7 SSE 1021,5 12 0 0,0
15.01.2018 03:00:00 -0,8 -2,0 -2,7 0,7 4,2 7,8 11 6 18 10 SE 1021,8 11 0 0,0
15.01.2018 02:00:00 -1,5 -2,5 -3,3 0,8 4,3 7,8 9 5 14 7 SSE 1022,3 13 0 0,0
15.01.2018 01:00:00 -2,2 -2,6 -4,8 0,9 4,4 7,8 9 5 11 6 SSE 1022,6 13 0 0,0
15.01.2018 00:00:00 -2,1 -2,7 -4,8 1,1 4,6 7,8 6 3 9 5 SE 1022,8 14 0 0,0
14.01.2018 23:00:00 -1,0 -2,0 -4,0 1,2 4,7 7,8 6 3 8 4 NE 1023,1 13 0 0,0
14.01.2018 22:00:00 -0,9 -2,0 -3,9 1,4 4,8 7,8 5 3 9 5 NE 1023,3 13 0 0,0
14.01.2018 21:00:00 -0,9 -2,1 -3,5 1,6 5,0 7,8 9 5 10 5 NE 1023,3 14 0 0,0
14.01.2018 20:00:00 -0,9 -1,8 -3,5 1,8 5,1 7,8 4 2 7 4 NNE 1023,4 16 0 0,0
14.01.2018 19:00:00 -0,6 -1,8 -3,9 2,1 5,3 7,8 4 2 10 5 NE 1023,1 14 0 0,0
14.01.2018 18:00:00 1,2 -1,4 -2,8 2,6 5,3 7,8 6 3 11 6 E 1023,0 17 0 0,0
14.01.2018 17:00:00 3,3 -0,5 0,7 3,9 5,4 7,8 8 4 23 12 SE 1023,0 18 0 0,0
14.01.2018 16:00:00 4,3 -1,0 3,6 4,2 5,4 7,8 18 10 25 13 SE 1022,7 21 0 0,0
14.01.2018 15:00:00 4,2 -1,0 3,5 4,5 5,4 7,8 15 8 27 15 SE 1022,5 22 8 0,0
14.01.2018 14:00:00 4,3 -1,1 4,0 5,2 5,3 7,8 19 10 26 14 ESE 1022,5 27 8 0,0
14.01.2018 13:00:00 4,4 -0,3 4,8 5,2 5,3 7,8 14 7 19 10 ESE 1022,8 21 0 0,0
14.01.2018 12:00:00 4,0 -0,5 4,4 4,6 5,3 7,8 10 5 18 10 ESE 1023,2 18 0 0,0
14.01.2018 11:00:00 3,5 -0,7 3,6 4,1 5,4 7,8 11 6 17 9 E 1023,6 17 0 0,0
14.01.2018 10:00:00 3,4 0,0 3,3 3,9 5,4 7,8 7 4 15 8 E 1023,3 14 0 0,0
14.01.2018 09:00:00 3,2 0,3 2,9 3,8 5,5 7,8 10 5 18 10 E 1022,9 11 0 0,0
14.01.2018 08:00:00 3,2 0,6 2,9 3,8 5,5 7,8 9 5 21 11 E 1022,9 10 0 0,0
14.01.2018 07:00:00 3,3 0,6 3,0 3,9 5,6 7,8 13 7 20 11 ENE 1022,7 12 0 0,0
14.01.2018 06:00:00 3,5 0,6 3,2 4,0 5,6 7,8 12 6 21 11 ENE 1022,4 14 0 0,0
14.01.2018 05:00:00 3,6 0,9 3,3 4,2 5,7 7,8 13 7 21 11 ENE 1022,2 15 0 0,0
14.01.2018 04:00:00 4,0 1,5 3,6 4,4 5,7 7,8 10 5 22 12 NE 1022,2 13 0 0,0
14.01.2018 03:00:00 4,4 1,5 4,0 4,5 5,8 7,8 14 8 21 11 ENE 1022,3 13 0 0,0
14.01.2018 02:00:00 4,9 1,6 4,3 4,6 5,8 7,8 11 6 18 10 ENE 1022,2 16 0 0,0
14.01.2018 01:00:00 5,2 1,4 4,5 4,7 5,9 7,8 11 6 19 11 ENE 1022,3 20 0 0,0
14.01.2018 00:00:00 5,3 1,3 4,6 4,7 5,9 7,8 12 6 19 10 ENE 1022,6 21 0 0,0
13.01.2018 23:00:00 5,4 1,4 4,8 4,8 5,9 7,8 13 7 21 12 ENE 1022,8 21 0 0,0
13.01.2018 22:00:00 5,4 1,6 4,7 4,9 6,0 7,8 11 6 21 11 ENE 1022,9 19 0 0,0
13.01.2018 21:00:00 5,7 1,6 5,0 5,1 6,0 7,8 14 7 19 11 ENE 1023,2 22 0 0,0
13.01.2018 20:00:00 6,0 1,7 5,3 5,2 6,1 7,8 11 6 18 10 E 1023,5 22 0 0,0
13.01.2018 19:00:00 6,1 1,7 5,3 5,3 6,1 7,8 10 5 21 12 ENE 1023,5 20 0 0,0
13.01.2018 18:00:00 6,2 2,0 5,3 5,5 6,1 7,8 8 5 16 8 ENE 1023,6 18 0 0,0
13.01.2018 17:00:00 6,4 1,6 5,7 5,7 6,1 7,8 11 6 17 9 ENE 1023,7 21 0 0,0
13.01.2018 16:00:00 6,6 1,7 5,9 6,0 6,0 7,8 9 5 24 13 E 1023,8 27 0 0,0
13.01.2018 15:00:00 7,0 1,5 6,5 6,4 6,0 7,8 9 5 18 10 E 1024,1 28 0 0,0
13.01.2018 14:00:00 7,2 1,8 7,0 6,8 5,9 7,8 9 5 16 8 E 1024,5 31 0 0,0
13.01.2018 13:00:00 7,2 1,6 7,4 6,8 5,8 7,8 11 6 17 9 ENE 1025,0 29 0 0,0
13.01.2018 12:00:00 6,8 1,1 7,2 6,2 5,8 7,8 9 5 19 11 NE 1025,6 31 14 0,0
13.01.2018 11:00:00 6,1 1,2 6,0 5,5 5,8 7,8 9 5 15 8 NE 1025,9 26 16 0,0
13.01.2018 10:00:00 5,6 1,5 5,4 4,8 5,9 7,8 7 4 21 11 NE 1026,1 21 7 0,0
13.01.2018 09:00:00 4,8 1,8 4,2 4,5 5,9 7,8 6 4 19 10 E 1026,6 19 0 0,0
13.01.2018 08:00:00 4,5 1,7 4,1 4,5 6,0 7,8 8 4 22 12 E 1026,5 14 0 0,0
13.01.2018 07:00:00 4,3 1,4 4,0 4,6 6,0 7,8 15 8 23 12 ESE 1026,7 14 0 0,0
13.01.2018 06:00:00 4,5 1,8 4,2 4,8 6,1 7,8 8 4 17 9 E 1026,7 11 0 0,0
13.01.2018 05:00:00 4,6 1,7 4,2 4,9 6,1 7,8 9 5 16 8 E 1027,1 11 0 0,0
13.01.2018 04:00:00 4,5 1,7 4,0 4,9 6,2 7,8 5 3 9 5 ENE 1027,3 10 0 0,0
13.01.2018 03:00:00 4,4 1,6 4,0 5,0 6,2 7,8 4 2 9 5 NE 1027,5 10 0 0,0
13.01.2018 02:00:00 4,4 1,7 4,1 5,0 6,3 7,8 8 5 18 10 E 1027,5 10 0 0,0
13.01.2018 01:00:00 4,4 2,1 4,2 5,2 6,4 7,8 11 6 21 11 E 1027,7 9 0 0,0
13.01.2018 00:00:00 5,0 2,3 4,6 5,4 6,4 7,8 11 6 19 11 SE 1027,7 11 0 0,0
12.01.2018 23:00:00 5,3 2,5 5,0 5,6 6,5 7,8 11 6 16 9 SE 1027,6 11 0 0,0
12.01.2018 22:00:00 5,5 3,1 5,1 5,8 6,5 7,8 12 6 19 11 ESE 1027,3 10 0 0,0
12.01.2018 21:00:00 5,6 3,5 5,3 6,0 6,6 7,8 11 6 19 10 E 1027,2 10 0 0,0
12.01.2018 20:00:00 5,8 3,7 5,4 6,2 6,6 7,8 11 6 16 8 SSE 1026,7 10 0 0,0
12.01.2018 19:00:00 6,2 4,0 5,9 6,5 6,6 7,8 10 6 14 8 S 1026,9 11 0 0,0
12.01.2018 18:00:00 6,5 4,6 6,1 6,7 6,6 7,8 6 3 10 5 SSW 1026,6 8 0 0,0
12.01.2018 17:00:00 6,8 4,7 6,4 7,0 6,5 7,8 3 2 5 3 NW 1026,4 8 0 0,0
12.01.2018 16:00:00 7,0 4,7 6,9 7,4 6,4 7,8 4 2 10 6 W 1026,1 9 0 0,0
12.01.2018 15:00:00 7,0 4,5 7,0 7,7 6,3 7,8 7 4 10 5 NW 1025,9 9 0 0,0
12.01.2018 14:00:00 6,4 4,8 7,0 7,8 6,2 7,8 6 3 8 5 ESE 1025,7 7 0 0,0
12.01.2018 13:00:00 6,8 4,7 7,9 8,1 6,1 7,8 5 3 8 5 N 1025,9 7 0 0,0
12.01.2018 12:00:00 6,0 4,2 6,5 6,4 6,1 7,8 0 0 6 3 N 1026,4 7 0 0,0
12.01.2018 11:00:00 5,7 4,0 6,0 6,1 6,1 7,8 4 2 7 4 WSW 1026,2 7 0 0,0
12.01.2018 10:00:00 5,3 3,6 5,4 5,6 6,1 7,8 5 3 10 6 SW 1025,9 8 0 0,0
12.01.2018 09:00:00 5,0 3,6 4,9 5,4 6,1 7,8 8 4 12 7 S 1025,3 8 0 0,0
12.01.2018 08:00:00 5,0 3,7 4,8 5,4 6,2 7,8 8 4 11 6 SSW 1024,9 8 0 0,0
12.01.2018 07:00:00 5,1 3,8 4,8 5,3 6,2 7,8 8 5 13 7 S 1024,6 7 0 0,0
12.01.2018 06:00:00 5,0 3,6 4,8 5,3 6,3 7,8 8 5 14 7 S 1024,0 8 0 0,0
12.01.2018 05:00:00 5,4 4,4 4,8 5,3 6,3 7,8 8 4 10 5 SSW 1023,8 7 0 0,0
12.01.2018 04:00:00 5,3 4,5 4,4 5,4 6,4 7,8 6 3 11 6 SSW 1023,4 6 0 0,0
12.01.2018 03:00:00 5,2 4,9 4,2 5,5 6,4 7,8 5 3 6 4 SSW 1023,3 6 0 0,0
12.01.2018 02:00:00 5,4 5,1 4,7 5,7 6,5 7,8 5 3 6 3 ESE 1022,7 5 0 0,0
12.01.2018 01:00:00 5,6 5,0 4,4 5,8 6,5 7,8 0 0 7 4 N 1022,5 8 0 0,0
12.01.2018 00:00:00 6,3 5,7 5,2 6,1 6,6 7,8 2 1 5 3 WSW 1022,1 12 0 0,0
11.01.2018 23:00:00 6,8 5,8 5,9 6,3 6,6 7,8 4 2 6 4 WNW 1021,6 14 0 0,0
11.01.2018 22:00:00 6,6 6,1 6,1 6,3 6,6 7,8 3 1 8 4 SE 1021,1 12 0 0,0
11.01.2018 21:00:00 6,8 6,2 6,2 6,4 6,7 7,8 6 3 8 5 NW 1020,5 12 0 0,0
11.01.2018 20:00:00 7,1 6,4 6,6 6,6 6,7 7,8 7 4 11 6 NW 1020,2 13 0 0,0
11.01.2018 19:00:00 7,2 6,4 6,4 6,7 6,7 7,8 8 4 13 7 NNW 1019,6 13 0 0,0
11.01.2018 18:00:00 7,7 6,1 6,9 7,1 6,7 7,8 8 5 16 9 NNW 1018,7 23 0 0,0
11.01.2018 17:00:00 8,0 6,4 7,4 7,6 6,6 7,8 9 5 14 8 NNW 1018,1 20 0 0,0
11.01.2018 16:00:00 8,5 6,4 8,0 8,1 6,5 7,8 6 3 14 8 NNW 1017,5 24 0 0,0
11.01.2018 15:00:00 8,6 6,6 8,3 8,3 6,4 7,8 6 4 14 8 NNW 1017,0 14 0 0,0
11.01.2018 14:00:00 8,5 6,3 8,4 8,5 6,2 7,8 9 5 14 7 NNW 1016,6 15 0 0,0
11.01.2018 13:00:00 8,7 6,5 8,9 8,6 6,1 7,8 9 5 11 6 WNW 1016,3 16 0 0,0
11.01.2018 12:00:00 8,9 6,4 8,7 8,3 6,0 7,8 7 4 9 5 NW 1016,3 26 12 0,0
11.01.2018 11:00:00 7,8 5,7 7,2 6,5 6,0 7,8 0 0 5 3 N 1016,2 23 0 0,0
11.01.2018 10:00:00 6,7 5,7 6,1 5,6 6,0 7,8 4 2 6 3 NW 1015,8 17 0 0,0
11.01.2018 09:00:00 5,4 5,3 4,6 5,2 6,0 7,8 3 2 6 3 N 1015,1 14 0 0,0
11.01.2018 08:00:00 5,7 5,7 4,1 5,3 6,1 7,8 4 2 6 3 NNE 1014,4 14 0 0,0
11.01.2018 07:00:00 5,9 5,9 5,1 5,5 6,1 7,8 2 1 8 4 SW 1013,9 12 0 0,0
11.01.2018 06:00:00 5,8 5,5 4,3 5,5 6,1 7,8 0 0 5 3 N 1013,5 14 0 0,0
11.01.2018 05:00:00 6,5 5,8 5,6 5,8 6,1 7,8 3 2 6 4 ENE 1013,0 13 0 0,0
11.01.2018 04:00:00 6,5 5,8 5,6 5,8 6,1 7,8 4 2 4 2 E 1012,8 19 0 0,0
11.01.2018 03:00:00 6,2 5,7 5,4 5,8 6,2 7,8 0 0 5 3 N 1012,8 17 0 0,0
11.01.2018 02:00:00 6,6 5,7 5,5 5,8 6,2 7,8 4 2 6 3 E 1012,6 23 0 0,0
11.01.2018 01:00:00 6,3 5,6 5,2 5,8 6,2 7,8 5 3 9 5 S 1012,6 32 0 0,0
11.01.2018 00:00:00 6,7 5,7 5,6 6,0 6,2 7,8 8 5 16 9 S 1012,9 25 0 0,0
10.01.2018 23:00:00 6,8 5,7 5,9 6,1 6,2 7,8 12 7 18 10 SE 1012,8 24 0 0,0
10.01.2018 22:00:00 7,2 5,7 6,1 6,2 6,3 7,8 14 8 27 14 SSE 1012,8 40 0 0,2
10.01.2018 21:00:00 7,6 5,2 6,2 6,3 6,3 7,8 17 9 31 17 S 1012,5 35 0 0,1
10.01.2018 20:00:00 7,5 5,5 6,1 6,4 6,3 7,8 15 8 30 16 S 1012,4 26 0 0,1
10.01.2018 19:00:00 8,2 4,9 6,6 6,5 6,3 7,8 18 10 27 15 S 1012,3 16 0 0,0
10.01.2018 18:00:00 8,4 4,2 7,1 6,7 6,2 7,8 11 6 32 17 S 1011,6 70 0 0,0
10.01.2018 17:00:00 9,9 3,3 8,9 7,3 6,1 7,8 18 10 38 20 SSW 1011,5 70 0 0,0
10.01.2018 16:00:00 10,1 5,0 9,2 7,8 6,0 7,8 13 7 19 10 S 1011,2 51 0 0,0
10.01.2018 15:00:00 10,9 4,9 10,4 7,8 5,8 7,8 11 6 19 10 S 1010,8 45 26 0,0
10.01.2018 14:00:00 11,2 5,4 9,9 8,1 5,7 7,8 9 5 15 8 S 1010,9 51 29 0,0
10.01.2018 13:00:00 9,6 4,5 9,1 7,5 5,6 7,8 11 6 18 10 S 1011,5 44 1 0,0
10.01.2018 12:00:00 9,3 4,6 8,0 7,6 5,5 7,8 14 8 20 11 SSE 1012,4 42 51 0,0
10.01.2018 11:00:00 9,5 5,4 8,7 6,1 5,4 7,8 11 6 16 8 S 1012,9 21 26 0,0
10.01.2018 10:00:00 6,9 5,0 5,7 5,0 5,4 7,8 11 6 14 7 S 1013,2 29 0 0,0
10.01.2018 09:00:00 6,1 5,4 4,9 4,8 5,4 7,8 8 4 16 8 S 1013,3 18 0 0,0
10.01.2018 08:00:00 5,8 5,5 4,8 4,9 5,4 7,8 6 4 8 4 SE 1013,2 11 0 0,2

tt = temperature
td = dewpoint
tt 5cm = temperature 5cm
tt -5cm = temperature -5cm
tt -20cm = temperature -20cm
tt -100cm = temperature -100cm
ff = wind speed
fx = gusts
dd = wind direction
ppp = reduced air pressure
vv = visibility
sd = sunshine duration
rr = precipitation

Next stations